User: anonymous   Login
Location: Guferjoch
(46.7462°N, 8.4506°E)
Time: 12:50:50
(UTC+00:00)
Language:

Okean 2 - Orbit

View from above orbital plane
View from above orbital plane
View from above satellite
View from above satellite

Ground track
Ground track

The orbit data is extracted from the following two-line orbital elements,

1 20510U 90018A   20272.11747771  .00000378  00000-0  28545-4 0  9990
2 20510  82.5124  99.6440 0010678 248.3149 251.3279 14.99516526661085
Epoch (UTC): 28 September 2020 02:49:10
Eccentricity: 0.0010678
inclination: 82.5124°
perigee height: 561 km
apogee height: 576 km
right ascension of ascending node: 99.6440°
argument of perigee: 248.3149°
revolutions per day: 14.99516526
mean anomaly at epoch: 251.3279°
orbit number at epoch: 66108

The dashed part of the orbit path shows where the satellite is in the earth's shadow,  

DLR